Location: Fiddletown
(38.4917°N, 120.6633°W)
Time: 22:56:13
(UTC-07:00)

Envisat - Visible Passes

Search period start: 01 May 2016 00:00
Search period end: 11 May 2016 00:00
Orbit: 764 x 766 km, 98.3° (Epoch: 01 May)

Date Brightness Start Highest point End Pass type
(mag) Time Alt. Az. Time Alt. Az. Time Alt. Az.
01 May 3.0 21:50:22 31° S 21:52:50 80° WSW 21:57:56 10° NNW visible
02 May 3.4 21:13:12 21° SE 21:16:16 45° ENE 21:21:06 10° N visible
02 May 5.1 22:53:23 15° WSW 22:55:28 19° W 22:59:04 10° NW visible
03 May 4.4 20:36:10 10° ESE 20:39:54 21° ENE 20:43:37 10° NNE visible
03 May 3.9 22:16:13 27° SSW 22:18:34 44° W 22:23:25 10° NNW visible
04 May 2.9 21:39:02 27° SSE 21:41:51 81° ENE 21:46:57 10° N visible
04 May 5.7 23:21:08 10° W 23:21:26 10° W 23:21:44 10° W visible
05 May 3.7 21:01:52 16° SE 21:05:20 36° ENE 21:09:57 10° N visible
05 May 4.8 22:42:03 18° SW 22:44:23 24° W 22:48:31 10° NW visible
06 May 4.7 20:25:52 10° ESE 20:29:01 17° ENE 20:32:11 10° NNE visible
06 May 3.5 22:04:52 26° SSW 22:07:33 56° W 22:12:33 10° NNW visible
07 May 3.0 21:27:42 22° SSE 21:30:54 64° ENE 21:35:56 10° N visible
07 May 5.5 23:07:54 10° WSW 23:10:19 13° W 23:12:46 10° WNW visible
08 May 4.1 20:50:31 12° ESE 20:54:26 29° ENE 20:58:45 10° N visible
08 May 4.5 22:30:44 20° SW 22:33:20 31° W 22:37:50 10° NW visible
09 May 3.1 21:53:33 25° S 21:56:32 72° WSW 22:01:38 10° NNW visible
10 May 3.3 21:16:23 18° SE 21:19:57 50° ENE 21:24:51 10° N visible
10 May 5.2 22:56:34 12° SW 22:59:13 17° W 23:02:33 10° NW visible
